HAZ3471 ZGGG-ZSAM

Flight info

Callsign HAZ3471
Flight time 0h 50m
Altitude 26600
Route LMN9 LMN G471 XEBUL DCT NUVGA DCT VETIB W155 TEBON TEBON8X
Aircraft A20N/M-SDE2E3FGHIRWXY/LB1

Departure

Time 2026-05-07 12:19
Airport Guangzhou Baiyun International Airport (ZGGG)

Arrival

Time 2026-05-07 13:09
Airport Xiamen Gaoqi International Airport (ZSAM)
Time Latitude Longitude Altitude Speed Heading
2026-05-07 12:07 23.39247 113.30582 55 ft 2 kts 14°
2026-05-07 12:08 23.39272 113.30589 55 ft 4 kts 14°
2026-05-07 12:08 23.39307 113.30598 55 ft 5 kts 13°
2026-05-07 12:08 23.39348 113.30609 55 ft 7 kts 13°
2026-05-07 12:08 23.39402 113.30623 55 ft 8 kts 14°
2026-05-07 12:09 23.39463 113.30640 55 ft 9 kts 14°
2026-05-07 12:09 23.39516 113.30684 55 ft 10 kts 81°
2026-05-07 12:09 23.39503 113.30764 55 ft 11 kts 104°
2026-05-07 12:09 23.39507 113.30846 55 ft 11 kts 43°
2026-05-07 12:10 23.39588 113.30875 55 ft 12 kts 14°
2026-05-07 12:10 23.39721 113.30911 55 ft 24 kts 12°
2026-05-07 12:10 23.39886 113.30957 55 ft 23 kts 14°
2026-05-07 12:10 23.40045 113.30999 55 ft 22 kts 14°
2026-05-07 12:11 23.40201 113.31041 55 ft 22 kts 13°
2026-05-07 12:11 23.40349 113.31081 55 ft 21 kts 14°
2026-05-07 12:11 23.40496 113.31121 55 ft 21 kts 14°
2026-05-07 12:11 23.40640 113.31159 55 ft 20 kts 14°
2026-05-07 12:12 23.40725 113.31215 55 ft 13 kts 90°
2026-05-07 12:12 23.40717 113.31259 55 ft 0 kts 103°
2026-05-07 12:16 23.40716 113.31261 55 ft 0 kts 104°
2026-05-07 12:16 23.40714 113.31271 55 ft 1 kts 104°
2026-05-07 12:17 23.40710 113.31290 55 ft 3 kts 104°
2026-05-07 12:17 23.40703 113.31318 55 ft 4 kts 104°
2026-05-07 12:17 23.40692 113.31354 55 ft 5 kts 123°
2026-05-07 12:17 23.40654 113.31364 55 ft 6 kts 188°
2026-05-07 12:18 23.40645 113.31363 55 ft 0 kts 191°
2026-05-07 12:18 23.40620 113.31357 55 ft 13 kts 194°
2026-05-07 12:19 23.40294 113.31268 55 ft 84 kts 194°
2026-05-07 12:19 23.39508 113.31060 56 ft 143 kts 193°
2026-05-07 12:19 23.38425 113.30765 267 ft 169 kts 193°
2026-05-07 12:19 23.37252 113.30438 856 ft 172 kts 193°
2026-05-07 12:20 23.36135 113.30135 1676 ft 162 kts 192°
2026-05-07 12:20 23.35020 113.29837 2201 ft 169 kts 192°
2026-05-07 12:20 23.33813 113.29514 2605 ft 185 kts 193°
2026-05-07 12:20 23.32500 113.29163 2990 ft 205 kts 193°
2026-05-07 12:21 23.31019 113.28768 3359 ft 228 kts 191°
2026-05-07 12:21 23.29400 113.28503 3832 ft 240 kts 184°
2026-05-07 12:21 23.27670 113.28439 4429 ft 248 kts 181°
2026-05-07 12:21 23.25919 113.28424 5326 ft 248 kts 180°
2026-05-07 12:22 23.24144 113.28413 6077 ft 256 kts 181°
2026-05-07 12:22 23.22289 113.28400 6625 ft 273 kts 181°
2026-05-07 12:22 23.20328 113.28374 7364 ft 281 kts 183°
2026-05-07 12:22 23.18339 113.28185 8162 ft 285 kts 189°
2026-05-07 12:23 23.16332 113.27776 8951 ft 289 kts 193°
2026-05-07 12:23 23.14293 113.27522 9674 ft 296 kts 176°
2026-05-07 12:23 23.12288 113.28116 10368 ft 304 kts 154°
2026-05-07 12:23 23.10541 113.29574 10771 ft 324 kts 130°
2026-05-07 12:24 23.09424 113.31808 11092 ft 343 kts 106°
2026-05-07 12:24 23.08977 113.34436 11408 ft 361 kts 94°
2026-05-07 12:24 23.09206 113.37240 11686 ft 377 kts 74°
2026-05-07 12:24 23.10308 113.39934 11965 ft 391 kts 57°
2026-05-07 12:25 23.11854 113.42486 12227 ft 405 kts 55°
2026-05-07 12:25 23.13471 113.45105 12638 ft 414 kts 55°
2026-05-07 12:25 23.14783 113.47270 13102 ft 418 kts 56°
2026-05-07 12:25 23.16471 113.50106 13689 ft 422 kts 56°
2026-05-07 12:26 23.18080 113.52831 14228 ft 425 kts 56°
2026-05-07 12:26 23.19690 113.55570 14747 ft 429 kts 56°
2026-05-07 12:26 23.21300 113.58312 15232 ft 433 kts 56°
2026-05-07 12:26 23.22937 113.61101 15718 ft 436 kts 56°
2026-05-07 12:27 23.24579 113.63902 16192 ft 440 kts 56°
2026-05-07 12:27 23.26253 113.66759 16649 ft 443 kts 56°
2026-05-07 12:27 23.27898 113.69566 17094 ft 446 kts 56°
2026-05-07 12:27 23.29580 113.72442 17524 ft 450 kts 56°
2026-05-07 12:28 23.31284 113.75357 17958 ft 453 kts 56°
2026-05-07 12:28 23.32963 113.78231 18383 ft 455 kts 56°
2026-05-07 12:28 23.34674 113.81162 18812 ft 458 kts 56°
2026-05-07 12:28 23.36408 113.84132 19255 ft 460 kts 55°
2026-05-07 12:29 23.38107 113.87043 19666 ft 462 kts 55°
2026-05-07 12:29 23.39865 113.90047 20070 ft 465 kts 55°
2026-05-07 12:29 23.41596 113.93010 20467 ft 467 kts 55°
2026-05-07 12:29 23.43343 113.96007 20853 ft 469 kts 55°
2026-05-07 12:30 23.45106 113.99034 21230 ft 471 kts 55°
2026-05-07 12:30 23.46860 114.02047 21588 ft 473 kts 55°
2026-05-07 12:30 23.48644 114.05116 21972 ft 475 kts 55°
2026-05-07 12:30 23.50398 114.08141 22466 ft 474 kts 55°
2026-05-07 12:31 23.52147 114.11154 22983 ft 472 kts 55°
2026-05-07 12:31 23.53921 114.14204 23515 ft 470 kts 54°
2026-05-07 12:31 23.55664 114.17157 24010 ft 468 kts 54°
2026-05-07 12:31 23.57450 114.20163 24510 ft 467 kts 54°
2026-05-07 12:32 23.59217 114.23139 24995 ft 466 kts 54°
2026-05-07 12:32 23.60981 114.26116 25384 ft 467 kts 54°
2026-05-07 12:32 23.62763 114.29093 25732 ft 468 kts 52°
2026-05-07 12:32 23.64770 114.31875 26076 ft 467 kts 45°
2026-05-07 12:33 23.69610 114.36642 26511 ft 465 kts 34°
2026-05-07 12:33 23.72204 114.38770 26514 ft 465 kts 33°
2026-05-07 12:33 23.74820 114.40885 26517 ft 465 kts 33°
2026-05-07 12:34 23.77407 114.42981 26521 ft 465 kts 33°
2026-05-07 12:34 23.80012 114.45101 26524 ft 465 kts 33°
2026-05-07 12:34 23.82614 114.47228 26527 ft 465 kts 33°
2026-05-07 12:34 23.85216 114.49361 26529 ft 466 kts 33°
2026-05-07 12:35 23.87803 114.51485 26527 ft 466 kts 33°
2026-05-07 12:35 23.90425 114.53641 26525 ft 466 kts 33°
2026-05-07 12:35 23.93020 114.55777 26528 ft 466 kts 34°
2026-05-07 12:35 23.95633 114.57930 26527 ft 466 kts 34°
2026-05-07 12:36 23.98230 114.60072 26525 ft 465 kts 34°
2026-05-07 12:36 24.00819 114.62211 26524 ft 465 kts 33°
2026-05-07 12:36 24.03401 114.64340 26523 ft 466 kts 34°
2026-05-07 12:36 24.06013 114.66499 26521 ft 466 kts 34°
2026-05-07 12:37 24.08619 114.68652 26519 ft 466 kts 34°
2026-05-07 12:37 24.11221 114.70805 26519 ft 467 kts 34°
2026-05-07 12:37 24.13823 114.72955 26517 ft 467 kts 34°
2026-05-07 12:37 24.16427 114.75111 26514 ft 467 kts 34°
2026-05-07 12:38 24.19019 114.77258 26518 ft 468 kts 34°
2026-05-07 12:38 24.21612 114.79405 26521 ft 468 kts 34°
2026-05-07 12:38 24.24217 114.81604 26522 ft 469 kts 38°
2026-05-07 12:38 24.26370 114.84332 26514 ft 478 kts 56°
2026-05-07 12:39 24.27656 114.87701 26525 ft 484 kts 75°
2026-05-07 12:39 24.27946 114.91378 26536 ft 488 kts 92°
2026-05-07 12:39 24.27622 114.95101 26541 ft 489 kts 95°
2026-05-07 12:39 24.27251 114.98799 26535 ft 488 kts 95°
2026-05-07 12:40 24.26890 115.02486 26536 ft 489 kts 95°
2026-05-07 12:40 24.26544 115.06198 26533 ft 489 kts 95°
2026-05-07 12:40 24.26212 115.09901 26530 ft 488 kts 94°
2026-05-07 12:40 24.25885 115.13618 26530 ft 488 kts 94°
2026-05-07 12:41 24.25563 115.17319 26530 ft 488 kts 94°
2026-05-07 12:41 24.25240 115.21020 26526 ft 488 kts 94°
2026-05-07 12:41 24.24914 115.24756 26527 ft 488 kts 94°
2026-05-07 12:41 24.24591 115.28452 26527 ft 488 kts 94°
2026-05-07 12:42 24.24269 115.32130 26526 ft 488 kts 94°
2026-05-07 12:42 24.23941 115.35859 26526 ft 488 kts 94°
2026-05-07 12:42 24.23615 115.39563 26527 ft 489 kts 94°
2026-05-07 12:42 24.23287 115.43265 26529 ft 489 kts 94°
2026-05-07 12:43 24.22985 115.46950 26528 ft 489 kts 93°
2026-05-07 12:43 24.22720 115.50715 26529 ft 488 kts 93°
2026-05-07 12:43 24.22471 115.54412 26525 ft 489 kts 93°
2026-05-07 12:43 24.22223 115.58101 26526 ft 488 kts 93°
2026-05-07 12:44 24.21965 115.61859 26525 ft 488 kts 93°
2026-05-07 12:44 24.21708 115.65562 26523 ft 488 kts 93°
2026-05-07 12:44 24.21447 115.69272 26524 ft 489 kts 93°
2026-05-07 12:44 24.21186 115.72985 26523 ft 488 kts 94°
2026-05-07 12:45 24.20922 115.76691 26519 ft 488 kts 94°
2026-05-07 12:45 24.20658 115.80384 26525 ft 488 kts 94°
2026-05-07 12:45 24.20388 115.84133 26528 ft 488 kts 93°
2026-05-07 12:45 24.20122 115.87829 26530 ft 488 kts 93°
2026-05-07 12:46 24.19852 115.91563 26532 ft 488 kts 93°
2026-05-07 12:46 24.19584 115.95284 26531 ft 488 kts 93°
2026-05-07 12:46 24.19313 115.99010 26526 ft 488 kts 93°
2026-05-07 12:46 24.19043 116.02714 26524 ft 488 kts 93°
2026-05-07 12:47 24.18773 116.06400 26523 ft 488 kts 94°
2026-05-07 12:47 24.18500 116.10106 26527 ft 487 kts 94°
2026-05-07 12:47 24.18221 116.13882 26527 ft 488 kts 94°
2026-05-07 12:47 24.17948 116.17576 26530 ft 488 kts 94°
2026-05-07 12:48 24.17673 116.21297 26533 ft 488 kts 94°
2026-05-07 12:48 24.17397 116.25004 26537 ft 489 kts 94°
2026-05-07 12:48 24.17120 116.28713 26539 ft 488 kts 94°
2026-05-07 12:48 24.16844 116.32381 26539 ft 488 kts 94°
2026-05-07 12:49 24.16563 116.36112 26541 ft 488 kts 94°
2026-05-07 12:49 24.16284 116.39812 26435 ft 489 kts 94°
2026-05-07 12:49 24.16013 116.43565 26183 ft 487 kts 92°
2026-05-07 12:49 24.15845 116.47244 25940 ft 485 kts 91°
2026-05-07 12:50 24.15699 116.50907 25696 ft 482 kts 91°
2026-05-07 12:50 24.15557 116.54614 25450 ft 480 kts 91°
2026-05-07 12:50 24.15417 116.58256 25206 ft 479 kts 91°
2026-05-07 12:50 24.15276 116.61877 24924 ft 480 kts 91°
2026-05-07 12:51 24.15130 116.65565 24325 ft 482 kts 92°
2026-05-07 12:51 24.14983 116.69230 23500 ft 484 kts 92°
2026-05-07 12:51 24.14831 116.72974 22551 ft 488 kts 92°
2026-05-07 12:51 24.14677 116.76688 21581 ft 493 kts 92°
2026-05-07 12:52 24.14520 116.80441 20887 ft 488 kts 92°
2026-05-07 12:52 24.14366 116.84103 20238 ft 483 kts 93°
2026-05-07 12:52 24.14264 116.87798 19594 ft 478 kts 91°
2026-05-07 12:52 24.14235 116.91389 18987 ft 472 kts 90°
2026-05-07 12:53 24.14218 116.94988 18364 ft 466 kts 90°
2026-05-07 12:53 24.14202 116.98506 17778 ft 460 kts 90°
2026-05-07 12:53 24.14184 117.02023 17168 ft 454 kts 90°
2026-05-07 12:53 24.14164 117.05428 16558 ft 449 kts 90°
2026-05-07 12:54 24.14142 117.08831 15933 ft 445 kts 90°
2026-05-07 12:54 24.14119 117.12245 15288 ft 441 kts 90°
2026-05-07 12:54 24.14095 117.15612 14646 ft 438 kts 90°
2026-05-07 12:54 24.14071 117.18900 14030 ft 434 kts 90°
2026-05-07 12:55 24.14045 117.22201 13409 ft 430 kts 90°
2026-05-07 12:55 24.14020 117.25433 12812 ft 425 kts 90°
2026-05-07 12:55 24.13995 117.28700 12192 ft 421 kts 90°
2026-05-07 12:55 24.13969 117.31871 11802 ft 410 kts 90°
2026-05-07 12:56 24.13942 117.34953 11441 ft 399 kts 90°
2026-05-07 12:56 24.13916 117.37961 11128 ft 387 kts 90°
2026-05-07 12:56 24.13890 117.40856 10920 ft 374 kts 90°
2026-05-07 12:56 24.13865 117.43682 10716 ft 361 kts 90°
2026-05-07 12:57 24.13840 117.46388 10467 ft 351 kts 90°
2026-05-07 12:57 24.13900 117.49009 10306 ft 338 kts 80°
2026-05-07 12:57 24.14753 117.51355 10143 ft 322 kts 52°
2026-05-07 12:57 24.16207 117.53174 9999 ft 309 kts 44°
2026-05-07 12:58 24.17677 117.54861 9631 ft 307 kts 44°
2026-05-07 12:58 24.19167 117.56581 9254 ft 305 kts 45°
2026-05-07 12:58 24.20618 117.58280 8892 ft 303 kts 45°
2026-05-07 12:58 24.22036 117.59957 8547 ft 300 kts 45°
2026-05-07 12:59 24.23441 117.61628 8216 ft 296 kts 45°
2026-05-07 12:59 24.24839 117.63298 7875 ft 293 kts 45°
2026-05-07 12:59 24.26214 117.64942 7545 ft 289 kts 46°
2026-05-07 12:59 24.27571 117.66568 7207 ft 286 kts 46°
2026-05-07 13:00 24.28916 117.68182 6867 ft 283 kts 46°
2026-05-07 13:00 24.30236 117.69767 6534 ft 280 kts 46°
2026-05-07 13:00 24.31550 117.71344 6212 ft 277 kts 46°
2026-05-07 13:00 24.32845 117.72901 5890 ft 274 kts 46°
2026-05-07 13:01 24.34122 117.74435 5567 ft 271 kts 46°
2026-05-07 13:01 24.35400 117.75970 5261 ft 267 kts 46°
2026-05-07 13:01 24.36630 117.77451 5173 ft 255 kts 46°
2026-05-07 13:01 24.37802 117.78861 5089 ft 243 kts 46°
2026-05-07 13:02 24.38911 117.80197 5005 ft 232 kts 47°
2026-05-07 13:02 24.39774 117.81664 4872 ft 226 kts 71°
2026-05-07 13:02 24.40032 117.83354 4619 ft 225 kts 84°
2026-05-07 13:02 24.40135 117.85091 4336 ft 224 kts 85°
2026-05-07 13:03 24.40231 117.86787 4065 ft 223 kts 85°
2026-05-07 13:03 24.40335 117.88450 3885 ft 213 kts 84°
2026-05-07 13:03 24.40447 117.90054 3583 ft 210 kts 84°
2026-05-07 13:03 24.40564 117.91653 3301 ft 205 kts 84°
2026-05-07 13:04 24.40852 117.93165 3044 ft 198 kts 70°
2026-05-07 13:04 24.41449 117.94494 2883 ft 184 kts 57°
2026-05-07 13:04 24.42123 117.95561 2855 ft 159 kts 52°
2026-05-07 13:04 24.42806 117.96521 2893 ft 156 kts 50°
2026-05-07 13:05 24.43484 117.97454 2915 ft 154 kts 50°
2026-05-07 13:05 24.44129 117.98348 2908 ft 145 kts 50°
2026-05-07 13:05 24.44748 117.99213 2732 ft 142 kts 50°
2026-05-07 13:05 24.45353 118.00060 2552 ft 141 kts 50°
2026-05-07 13:06 24.45966 118.00919 2373 ft 141 kts 51°
2026-05-07 13:06 24.46579 118.01779 2198 ft 142 kts 52°
2026-05-07 13:06 24.47192 118.02640 2015 ft 141 kts 52°
2026-05-07 13:06 24.47805 118.03498 1833 ft 141 kts 52°
2026-05-07 13:07 24.48414 118.04353 1650 ft 141 kts 53°
2026-05-07 13:07 24.49021 118.05204 1463 ft 141 kts 53°
2026-05-07 13:07 24.49634 118.06065 1283 ft 140 kts 52°
2026-05-07 13:07 24.50238 118.06911 1098 ft 139 kts 51°
2026-05-07 13:08 24.50830 118.07753 911 ft 138 kts 50°
2026-05-07 13:08 24.51424 118.08568 709 ft 137 kts 51°
2026-05-07 13:08 24.52033 118.09393 523 ft 137 kts 52°
2026-05-07 13:08 24.52615 118.10228 388 ft 137 kts 53°
2026-05-07 13:09 24.53208 118.11060 206 ft 137 kts 52°
2026-05-07 13:09 24.53802 118.11903 76 ft 135 kts 53°
2026-05-07 13:09 24.54291 118.12592 75 ft 88 kts 52°
2026-05-07 13:09 24.54566 118.12973 74 ft 38 kts 52°
2026-05-07 13:10 24.54655 118.13103 74 ft 16 kts 57°
2026-05-07 13:10 24.54705 118.13216 74 ft 16 kts 69°
2026-05-07 13:10 24.54716 118.13336 74 ft 15 kts 82°
2026-05-07 13:10 24.54733 118.13456 74 ft 16 kts 78°
2026-05-07 13:11 24.54780 118.13567 74 ft 16 kts 51°
2026-05-07 13:11 24.54850 118.13666 74 ft 16 kts 53°
2026-05-07 13:11 24.54865 118.13760 74 ft 13 kts 143°
2026-05-07 13:11 24.54793 118.13810 74 ft 9 kts 121°
2026-05-07 13:12 24.54810 118.13868 74 ft 6 kts 77°
2026-05-07 13:12 24.54817 118.13902 74 ft 4 kts 77°
2026-05-07 13:12 24.54820 118.13919 74 ft 0 kts 77°
2026-05-07 13:12 24.54821 118.13921 74 ft 0 kts 77°